Lapse_Rate
8.9 9.2 8.4 8.7 9.0 8.6 8.7 9.2 9.3 8.7 8.6 8.8 9.3 9.6 9.5 9.3 8.5 6.8 6.4 6.1 7.0 7.1 8.5 7.4 6.6 6.7 7.1 6.5 6.6 5.7 6.5 6.5 6.5 6.5 6.5 6.3 6.5 5.3 4.7 4.7 4.6 4.7 4.8 5.3 4.2
8.9 9.2 9.0 9.2 9.3 9.2 9.2 9.3 9.4 9.4 9.4 9.5 9.4 9.3 9.2 9.2 7.4 6.8 6.5 7.8 8.4 8.9 8.7 7.0 6.3 6.4 7.0 6.9 6.3 6.5 6.5 6.5 6.5 6.5 6.5 6.6 6.3 6.2 6.4 6.4 6.2 5.6 4.4 5.0 3.8
8.8 8.7 8.9 8.9 9.1 8.9 9.1 9.2 9.4 9.5 9.4 9.4 9.5 9.5 9.4 8.9 7.8 5.2 8.0 8.6 8.5 9.4 8.9 8.0 7.2 7.1 7.0 7.1 6.9 6.4 6.5 6.5 6.6 6.3 6.2 6.6 6.5 5.9 6.6 6.5 6.2 5.4 4.2 5.1 4.8
8.8 9.4 9.3 9.2 9.2 9.2 9.3 9.4 9.4 9.4 9.4 9.4 9.4 9.5 9.6 8.2 6.5 6.9 8.4 7.9 7.5 8.4 7.9 7.7 7.2 7.0 6.5 6.5 6.9 6.5 6.6 6.6 6.5 6.3 6.4 6.5 6.4 6.6 6.0 6.0 4.4 5.1 4.3 5.2 5.1
9.5 9.2 9.4 9.3 9.2 9.2 9.4 9.4 9.4 9.4 9.4 9.4 9.4 9.1 8.7 7.4 7.4 5.8 7.7 8.2 8.5 7.6 7.7 6.9 7.2 7.1 6.5 6.5 6.7 6.5 6.5 6.5 6.7 6.1 6.0 6.3 6.5 6.5 6.3 4.8 3.6 3.5 4.8 6.3 6.2
9.4 9.4 9.1 9.0 9.3 9.3 9.2 9.2 9.3 9.2 9.3 9.3 9.4 9.1 7.6 6.6 8.0 7.7 6.1 7.1 7.9 7.9 7.1 6.6 7.0 7.6 6.8 6.6 6.5 6.6 6.6 6.4 6.7 6.7 6.3 6.5 6.6 6.5 5.9 3.5 3.3 4.4 5.2 7.2 6.5
8.9 9.0 9.1 8.8 9.2 9.1 9.1 9.2 9.1 7.4 8.9 9.0 9.2 9.1 7.7 7.3 7.5 7.2 7.1 7.2 7.7 7.6 6.7 7.5 7.0 6.6 7.0 6.5 6.7 6.7 6.5 6.5 6.5 6.4 6.5 6.4 6.5 6.5 5.6 4.4 6.2 7.3 7.4 7.1 7.3
9.5 9.3 9.0 8.4 8.3 8.6 8.5 7.8 7.4 7.2 8.5 8.7 8.4 7.2 6.8 6.7 7.3 6.3 6.6 5.9 6.2 7.1 7.3 7.8 7.7 6.6 7.0 6.4 6.7 6.5 6.5 6.5 6.5 6.5 6.3 6.5 6.5 6.5 5.3 5.2 7.0 7.3 7.4 7.1 7.2
8.7 8.4 8.3 8.3 8.3 8.3 7.9 7.2 7.1 7.7 8.3 8.0 6.6 7.0 6.2 7.0 6.1 6.1 5.8 5.8 6.2 6.9 8.0 8.9 7.8 7.1 6.8 6.5 6.5 6.5 6.5 6.5 6.5 6.5 6.5 6.5 6.5 6.5 5.1 6.4 7.0 7.2 7.4 7.3 6.8
9.0 9.0 8.5 8.2 8.2 8.2 7.6 7.1 6.8 6.5 6.9 7.4 7.7 6.6 6.0 6.2 6.7 7.3 6.7 7.2 6.3 6.4 7.4 7.3 7.1 6.5 6.5 6.5 6.5 6.5 6.5 6.5 6.5 6.5 6.5 6.5 6.5 6.5 6.3 6.3 6.8 7.1 7.2 7.1 5.8
9.1 8.7 8.1 7.8 7.5 7.7 5.9 4.0 7.1 5.7 6.6 6.0 6.2 6.9 6.4 5.5 6.3 5.0 6.8 7.2 7.3 6.5 6.5 6.7 6.5 6.5 6.5 6.5 6.5 6.5 6.5 6.5 6.5 6.5 6.5 6.5 6.5 6.5 6.6 6.4 6.7 6.8 6.8 7.1 6.3
8.8 7.6 7.6 6.9 7.2 7.0 4.9 6.6 6.9 6.9 6.6 6.1 5.2 5.9 5.1 6.1 5.7 5.2 6.0 6.9 6.4 6.5 6.5 6.5 6.5 6.5 6.5 6.5 6.5 6.5 6.5 6.5 6.5 6.5 6.5 6.5 6.5 6.5 6.5 6.6 6.7 6.8 7.0 6.9 6.3
8.7 7.2 6.9 6.7 7.0 4.7 4.9 6.9 6.3 6.5 6.3 5.8 5.0 5.8 5.6 5.3 5.7 5.7 6.2 6.4 6.5 6.5 6.5 6.5 6.5 6.5 6.5 6.5 6.5 6.5 6.5 6.5 6.5 6.5 6.5 6.5 6.5 6.5 6.5 6.5 6.6 6.2 6.5 7.0 5.6
8.3 7.5 7.2 6.8 5.5 4.1 6.0 5.6 5.2 6.1 6.5 6.5 6.3 6.6 6.2 5.3 6.4 5.6 6.2 6.4 6.5 6.5 6.5 6.5 6.5 6.5 6.5 6.5 6.5 6.5 6.5 6.5 6.5 6.5 6.5 6.5 6.5 6.5 6.5 6.5 6.5 6.7 6.6 5.8 5.8
8.1 7.4 7.2 6.5 4.6 5.2 6.2 4.6 5.3 5.6 6.5 6.5 6.2 7.1 6.9 6.3 6.0 6.8 7.4 7.4 6.5 6.5 6.5 6.5 6.5 6.5 6.5 6.5 6.5 6.5 6.5 6.5 6.5 6.5 6.5 6.5 6.5 6.5 6.5 6.5 6.5 6.5 6.7 6.4 5.2
7.3 7.1 6.9 5.0 3.8 5.2 4.4 4.0 4.4 6.5 6.5 6.5 6.2 6.5 6.5 6.6 6.5 6.8 6.9 7.4 7.1 6.5 6.5 6.5 6.4 6.5 6.5 6.5 6.5 6.5 6.5 6.5 6.5 6.5 6.5 6.5 6.5 6.5 6.5 6.5 6.5 6.5 6.6 6.1 5.5
6.6 6.5 5.8 5.4 4.7 4.3 2.9 2.9 6.5 6.5 6.5 6.5 6.5 6.5 6.5 6.5 6.5 6.5 6.5 6.5 6.5 6.5 6.5 6.5 6.5 6.5 6.5 6.5 6.5 6.5 6.5 6.5 6.5 6.5 6.5 6.5 6.5 6.5 6.5 6.5 6.5 6.5 6.6 6.0 4.6
6.0 5.1 4.3 5.4 3.7 2.9 2.2 5.9 6.5 6.5 6.5 6.5 6.5 6.5 6.5 6.5 6.5 6.5 6.5 6.5 6.5 6.5 6.5 6.5 6.5 6.5 6.5 6.5 6.5 6.5 6.5 6.5 6.5 6.5 6.5 6.5 6.5 6.5 6.5 6.3 5.6 5.6 6.6 5.6 4.7
4.3 1.7 3.5 3.3 2.7 1.8 1.8 6.5 6.5 6.5 6.5 6.5 6.5 6.5 6.5 6.5 6.5 6.5 6.5 6.5 6.5 6.5 6.5 6.5 6.5 6.5 6.5 6.5 6.5 6.5 6.5 6.5 6.5 6.5 6.5 6.5 6.5 6.5 6.5 6.5 6.5 6.1 5.2 6.2 6.4
1.4 2.1 3.3 2.9 2.2 1.5 5.3 6.5 6.5 6.5 6.5 6.5 6.5 6.5 6.5 6.5 6.5 6.5 6.5 6.5 6.5 6.5 6.5 6.5 6.5 6.5 6.5 6.5 6.5 6.5 6.5 6.5 6.5 6.5 6.5 6.5 6.5 6.5 6.5 6.5 6.5 6.5 6.3 5.3 6.1
0.8 2.5 3.7 2.1 1.3 1.2 6.5 6.5 6.5 5.9 6.5 6.5 6.5 6.5 6.5 6.5 6.5 6.5 6.5 6.5 6.5 6.5 6.5 6.5 6.5 6.5 6.5 6.5 6.5 6.5 6.5 6.5 6.5 6.5 6.5 6.5 6.5 6.5 6.5 6.5 6.5 6.5 5.6 4.7 4.7
2.0 6.3 3.1 1.4 4.3 4.4 6.5 6.5 6.8 6.5 6.4 6.5 6.5 6.5 6.5 6.5 6.5 6.5 6.5 6.5 6.7 6.5 6.5 6.5 6.5 6.5 6.5 6.5 6.5 6.5 6.5 6.5 6.5 6.5 6.5 6.5 6.5 6.5 6.5 6.5 6.5 6.4 5.5 3.8 2.7
1.5 2.1 2.4 2.6 6.5 6.5 6.4 6.5 6.5 6.5 6.5 6.5 6.5 6.5 6.5 6.5 6.5 6.5 6.5 6.5 6.6 6.5 6.5 6.5 6.5 6.5 6.5 6.5 6.5 6.5 6.5 6.5 6.5 6.5 6.5 6.5 6.5 6.5 6.5 6.5 6.3 6.3 5.1 4.0 3.1
0.8 6.5 1.2 0.7 5.7 6.3 6.5 6.5 6.5 6.3 6.5 6.4 6.5 6.5 6.5 6.5 6.5 6.5 6.5 6.5 6.7 6.6 7.0 6.7 6.5 6.5 6.5 6.5 6.5 6.5 6.5 6.5 6.5 6.5 6.5 6.5 6.5 6.5 6.5 6.5 6.5 6.0 4.7 3.5 3.2
0.7 5.2 6.1 6.5 5.6 6.5 6.5 6.5 6.5 6.5 6.4 6.2 6.5 6.5 6.5 6.5 6.5 6.5 6.5 6.5 6.5 6.7 6.5 6.5 6.5 6.5 6.5 6.5 6.5 6.5 6.5 6.5 6.5 6.5 6.5 6.5 6.5 6.5 6.5 6.5 6.5 5.6 5.0 4.6 4.2
1.5 3.6 4.2 6.6 6.7 6.5 6.5 6.5 6.5 6.5 6.5 6.5 6.5 6.5 6.5 6.5 6.5 6.5 6.5 6.5 6.5 6.5 6.5 6.5 6.5 6.5 6.5 6.5 6.5 6.5 6.5 6.5 6.5 6.5 6.5 6.5 6.5 6.5 6.3 5.9 5.9 5.2 5.0 4.9 4.6
2.7 3.9 6.7 5.6 6.5 6.5 6.5 6.5 6.5 6.2 6.3 6.4 6.4 6.5 6.5 6.5 6.4 6.7 6.8 6.9 6.6 6.5 6.5 6.5 6.5 6.5 6.5 6.5 6.5 6.5 6.5 6.5 6.5 6.5 6.5 6.5 6.5 6.5 6.5 6.5 6.2 4.8 4.6 4.2 3.9
Wind_Speed
17 19 18 16 21 21 20 22 23 22 21 19 21 22 22 19 19 7 14 12 10 14 13 4 4 7 5 5 7 3 4 13 11 10 3 4 8 1 2 7 1 5 4 2 16
18 20 20 20 21 18 19 20 23 24 24 24 23 22 20 19 6 13 18 22 22 19 12 7 7 5 5 8 6 5 9 12 6 5 3 3 6 7 6 4 2 2 3 15 14
19 20 21 21 20 20 22 23 23 24 24 23 23 23 21 14 11 6 20 24 16 13 15 6 6 6 15 8 12 11 11 6 7 7 5 3 3 3 7 4 7 13 15 16 12
21 22 22 21 21 22 23 24 24 24 25 25 23 22 19 3 8 2 9 27 20 14 11 12 11 9 9 16 11 10 17 11 7 1 4 2 0 0 4 5 2 6 16 23 18
22 20 22 23 22 23 24 24 25 26 26 26 24 22 12 9 10 28 31 11 7 11 7 9 16 14 15 9 14 18 13 19 9 11 5 0 2 2 5 1 1 12 19 19 17
22 23 22 21 23 25 24 25 27 29 28 26 23 20 8 20 7 18 9 4 5 8 10 6 6 12 8 9 11 5 16 14 15 11 7 6 2 2 0 3 9 16 20 20 20
21 23 23 23 24 25 27 29 29 33 28 24 21 9 8 17 3 9 9 13 10 10 6 7 9 2 3 4 15 6 12 14 17 12 7 5 9 6 3 6 10 13 14 15 18
22 22 22 24 25 27 29 29 31 31 22 18 13 1 5 4 11 10 6 7 5 8 9 9 4 1 4 2 1 12 5 15 11 14 7 13 19 12 6 10 11 14 13 13 17
22 24 25 25 26 27 29 30 30 24 11 11 3 2 7 6 1 7 6 6 2 4 6 3 5 3 9 7 6 7 12 16 7 19 11 10 6 9 7 7 10 14 14 12 11
25 25 25 25 25 25 25 27 19 7 11 3 2 1 4 3 3 3 0 4 2 2 7 7 5 5 8 13 16 12 16 8 18 8 12 16 11 8 10 8 11 14 12 12 12
25 25 25 24 23 23 11 4 7 5 6 5 10 6 13 6 5 5 5 2 3 3 2 7 7 11 11 25 15 14 3 13 5 7 9 16 14 8 9 14 8 11 14 14 13
24 26 23 23 23 11 4 4 4 5 9 9 11 8 9 1 5 7 5 6 7 10 4 4 18 11 10 10 19 8 9 8 3 10 8 8 15 16 11 15 16 15 14 14 12
24 24 23 22 17 4 2 2 2 1 4 7 5 4 5 4 5 7 7 4 4 6 9 9 7 14 13 10 12 13 16 9 8 6 6 8 15 9 13 7 13 7 10 12 17
23 22 23 21 4 3 1 4 8 3 3 6 5 3 1 3 4 5 5 5 3 9 5 6 11 12 14 11 13 13 10 12 8 8 6 10 5 15 16 15 11 18 16 16 17
23 21 21 5 2 3 5 12 2 3 5 10 6 2 13 4 5 1 2 4 6 6 5 7 9 13 17 16 12 5 10 12 11 11 5 7 5 5 15 17 20 17 15 16 16
22 23 17 3 2 3 13 4 3 6 4 7 5 12 11 4 2 4 3 2 1 5 5 5 3 4 11 5 15 3 3 5 8 5 9 7 14 5 10 28 19 17 16 16 15
24 20 6 1 3 15 6 3 5 6 5 9 8 11 12 5 9 2 2 4 4 3 2 3 5 3 9 9 2 12 9 4 7 5 9 5 9 13 13 14 21 19 17 17 16
22 11 4 2 13 6 3 5 7 4 5 5 6 14 4 7 7 9 6 1 6 4 2 5 3 12 7 6 6 16 15 5 6 7 2 4 6 6 5 7 6 10 17 17 19
14 3 2 4 11 2 5 5 6 3 4 8 14 4 5 2 4 6 3 3 4 9 6 5 5 4 12 5 9 9 11 3 3 2 3 3 4 7 4 3 5 6 7 14 16
1 3 3 14 6 4 5 2 2 3 4 3 3 3 5 9 8 9 5 3 5 6 6 2 3 5 6 8 3 3 7 4 3 3 1 2 4 2 1 5 5 7 7 8 12
3 3 3 15 3 5 3 4 4 5 3 3 3 4 5 7 5 4 4 7 8 9 7 2 4 1 11 8 13 5 3 3 4 2 4 4 3 4 2 1 4 4 5 6 8
2 3 3 4 4 2 1 3 4 4 2 3 3 3 3 10 4 3 4 5 13 13 6 5 2 2 8 4 8 4 8 2 3 4 1 0 1 1 3 4 3 3 4 4 6
2 2 3 3 3 3 5 4 2 3 4 4 3 3 5 5 5 4 4 8 10 12 9 2 2 3 6 2 2 4 3 4 5 2 2 1 1 3 2 2 2 2 2 1 5
3 3 4 4 2 3 5 5 6 4 3 4 4 3 8 4 4 7 7 7 23 12 23 4 2 1 3 6 5 6 8 5 4 2 3 3 5 3 3 4 3 4 3 3 4
3 2 3 4 3 3 2 3 4 6 4 4 3 4 6 5 7 2 4 15 11 7 15 5 3 4 3 2 4 6 14 12 9 4 4 8 5 2 2 2 2 3 3 5 6
2 3 3 3 4 4 4 3 2 4 2 5 2 13 8 5 5 15 12 7 6 9 11 7 5 5 7 6 10 6 5 7 4 5 5 8 2 1 1 1 4 5 5 5 5
1 2 2 4 2 2 2 3 4 1 4 7 7 10 7 7 8 18 16 14 15 11 5 5 4 4 3 4 6 5 1 1 3 5 4 4 5 4 3 5 4 5 5 5 5
Wind_Direction
347 342 348 349 344 340 339 337 333 328 322 317 316 312 310 317 318 322 281 237 245 260 254 330 318 296 196 238 198 185 204 223 216 197 219 134 160 216 112 131 223 175 154 215 131
340 341 339 340 335 332 333 332 326 322 319 317 313 311 312 318 328 299 256 249 246 252 254 256 267 264 207 212 206 195 214 217 165 200 221 173 179 167 154 131 207 137 74 139 138
344 347 343 336 333 335 334 328 325 321 318 315 313 313 314 330 321 235 58 27 27 255 272 225 220 226 223 208 217 196 224 183 181 181 233 187 161 200 137 180 213 191 163 156 156
341 337 335 333 332 336 335 327 321 316 314 313 311 306 308 8 278 254 333 349 341 328 308 222 211 209 220 215 208 238 226 229 176 168 190 180 10 301 207 169 144 210 170 168 163
338 335 338 338 333 332 329 322 318 313 313 311 305 304 302 259 242 275 300 346 330 355 9 206 200 207 211 221 221 232 241 221 217 199 152 140 240 223 249 280 163 151 160 176 173
335 334 332 335 334 328 323 321 316 311 312 308 303 293 278 275 219 267 296 308 330 343 316 349 223 218 242 241 221 214 222 228 219 201 193 183 224 292 155 128 134 158 166 173 182
334 339 343 335 329 325 324 322 315 310 312 306 298 282 258 256 208 256 266 289 293 280 280 275 305 227 233 245 238 264 253 229 233 219 204 156 265 214 192 139 149 168 175 170 180
339 334 331 328 330 329 328 321 314 310 314 311 309 137 252 313 260 261 275 292 262 232 224 255 222 245 239 265 223 209 256 236 225 205 188 174 239 209 164 156 166 178 174 176 177
338 340 339 334 330 330 330 319 311 316 340 336 30 111 270 309 306 275 179 244 298 237 205 165 172 229 195 201 198 196 214 208 222 201 173 191 228 215 160 184 178 185 176 172 158
340 339 334 331 331 333 330 316 311 359 354 344 95 43 275 307 300 289 266 235 255 282 165 199 180 227 242 202 203 194 206 216 207 200 191 201 217 259 193 185 193 185 177 176 166
343 341 341 339 336 336 336 357 8 342 33 254 267 272 287 298 290 257 195 190 212 123 246 192 211 204 219 198 213 203 198 212 201 181 168 209 208 211 199 201 188 195 183 185 175
346 343 338 335 335 345 13 54 65 296 311 282 269 246 266 223 293 271 147 192 187 216 189 259 227 227 228 213 212 198 209 209 188 193 194 195 214 212 189 204 206 196 198 186 162
339 340 337 332 334 35 339 52 309 267 280 296 257 264 269 145 263 289 157 179 189 211 214 213 255 196 234 250 190 198 218 210 209 166 169 191 222 210 210 199 194 220 204 187 181
334 338 336 333 46 308 340 331 321 186 50 282 330 304 180 230 271 221 220 174 206 220 192 259 244 245 211 235 207 203 203 216 225 203 230 204 227 205 208 206 199 192 193 194 195
333 337 336 9 260 353 301 325 332 61 41 319 301 236 319 231 285 182 256 211 215 191 152 226 219 222 233 214 192 219 174 210 221 238 231 235 233 200 195 208 212 204 199 197 191
339 333 336 345 4 267 317 318 43 43 296 329 323 327 343 293 260 337 355 62 136 206 244 249 287 238 206 219 219 173 281 215 212 219 234 200 211 193 189 209 208 204 200 191 186
334 334 333 6 303 313 330 47 32 86 348 323 332 329 326 288 314 259 281 224 178 80 220 164 244 287 158 183 275 192 146 226 201 220 230 284 206 236 216 201 206 198 195 187 185
337 332 334 95 333 320 44 50 56 253 281 298 301 309 292 337 323 322 301 246 221 209 285 181 262 176 197 192 161 192 186 177 179 190 172 139 220 221 206 180 195 193 194 186 183
341 341 337 309 337 41 67 52 203 250 308 313 312 317 311 330 339 321 279 255 247 187 212 179 248 148 174 173 144 157 204 198 111 61 151 191 286 277 209 174 185 175 163 182 193
17 351 285 331 351 64 74 266 231 223 312 279 305 13 320 332 345 332 310 337 313 247 218 225 276 202 175 132 98 117 144 138 194 166 192 353 288 252 104 195 199 187 195 180 184
42 24 266 344 50 45 106 226 281 269 290 255 286 286 268 325 284 298 291 305 344 324 220 247 242 186 152 198 171 145 210 139 97 192 164 146 245 224 236 240 193 167 186 191 180
49 10 316 6 43 25 69 242 310 293 313 297 258 264 310 314 288 288 298 289 7 321 297 214 257 223 162 332 148 124 150 166 147 145 79 304 275 26 321 266 242 238 201 197 205
28 279 334 60 69 347 310 305 280 315 317 320 298 350 1 281 312 259 307 295 334 332 341 306 217 117 128 42 137 150 138 119 100 126 8 159 164 25 26 39 52 87 51 211 175
44 359 333 39 79 16 357 326 324 308 285 324 282 323 342 291 251 294 308 313 323 317 341 324 30 81 201 199 121 119 136 125 96 101 193 360 120 9 18 58 38 49 34 56 130
35 291 337 325 341 342 332 295 317 343 333 318 316 16 348 288 301 285 314 327 321 357 340 9 353 6 12 142 111 134 154 159 194 157 151 168 131 191 115 61 55 64 68 89 104
65 32 336 296 332 351 353 282 308 339 286 304 291 318 309 270 276 300 326 325 280 328 333 344 342 1 26 25 124 118 130 119 121 110 47 120 99 107 52 81 67 79 100 97 113
357 352 318 308 349 52 243 258 279 337 285 246 290 312 298 283 300 283 271 266 264 291 310 301 343 5 16 357 82 93 47 183 128 59 116 135 193 137 70 78 41 79 78 117 140